,,PressureMeas_1m,,PRMeasQMR101_1,,RHStat155_1m_1,,SRMeasQMS101R_1m,,TAStat155_1m_1,,GenWind_1,,GenWind_1,
2017-06-04, 07:00:06,VALID,918.193,VALID,0.0,VALID,95.148,VALID,139.401,VALID,21.045,VALID,88.0,VALID,0.129,
2017-06-04, 07:01:06,VALID,918.211,VALID,0.0,VALID,93.865,VALID,143.144,VALID,21.106,VALID,88.0,VALID,0.105,
2017-06-04, 07:02:06,VALID,918.241,VALID,0.0,VALID,93.449,VALID,135.779,VALID,21.172,VALID,91.0,VALID,0.2,
2017-06-04, 07:03:06,VALID,918.261,VALID,0.0,VALID,92.949,VALID,146.278,VALID,21.185,VALID,106.0,VALID,0.375,
2017-06-04, 07:04:06,VALID,918.273,VALID,0.0,VALID,92.967,VALID,156.462,VALID,21.151,VALID,118.0,VALID,0.721,
2017-06-04, 07:05:06,VALID,918.303,VALID,0.0,VALID,93.096,VALID,158.276,VALID,21.104,VALID,122.0,VALID,0.673,
2017-06-04, 07:06:06,VALID,918.33,VALID,0.0,VALID,93.361,VALID,159.862,VALID,21.062,VALID,119.0,VALID,0.636,
2017-06-04, 07:07:06,VALID,918.348,VALID,0.0,VALID,93.765,VALID,162.648,VALID,21.056,VALID,121.0,VALID,0.734,
2017-06-04, 07:08:06,VALID,918.332,VALID,0.0,VALID,93.925,VALID,166.789,VALID,21.064,VALID,113.0,VALID,0.777,
2017-06-04, 07:09:06,VALID,918.311,VALID,0.0,VALID,93.978,VALID,170.473,VALID,21.096,VALID,138.0,VALID,0.946,
2017-06-04, 07:10:06,VALID,918.29,VALID,0.0,VALID,92.779,VALID,173.383,VALID,20.95,VALID,143.0,VALID,1.16,
2017-06-04, 07:11:06,VALID,918.291,VALID,0.0,VALID,93.564,VALID,176.11,VALID,20.762,VALID,144.0,VALID,1.204,
2017-06-04, 07:12:06,VALID,918.287,VALID,0.0,VALID,94.564,VALID,181.079,VALID,20.664,VALID,150.0,VALID,1.066,
2017-06-04, 07:13:06,VALID,918.302,VALID,0.0,VALID,95.196,VALID,185.682,VALID,20.651,VALID,150.0,VALID,1.096,
2017-06-04, 07:14:06,VALID,918.321,VALID,0.0,VALID,95.529,VALID,187.618,VALID,20.673,VALID,152.0,VALID,1.319,
2017-06-04, 07:15:06,VALID,918.328,VALID,0.0,VALID,95.687,VALID,184.455,VALID,20.682,VALID,146.0,VALID,1.508,
2017-06-04, 07:16:06,VALID,918.334,VALID,0.0,VALID,95.56,VALID,166.96,VALID,20.617,VALID,136.0,VALID,1.412,
2017-06-04, 07:17:06,VALID,918.331,VALID,0.0,VALID,95.686,VALID,143.473,VALID,20.519,VALID,132.0,VALID,1.579,
2017-06-04, 07:18:06,VALID,918.31,VALID,0.0,VALID,96.028,VALID,151.804,VALID,20.427,VALID,132.0,VALID,1.243,
2017-06-04, 07:19:06,VALID,918.279,VALID,0.0,VALID,96.439,VALID,181.113,VALID,20.401,VALID,131.0,VALID,1.145,
2017-06-04, 07:20:06,VALID,918.279,VALID,0.0,VALID,96.812,VALID,163.302,VALID,20.426,VALID,140.0,VALID,0.813,
2017-06-04, 07:21:06,VALID,918.275,VALID,0.0,VALID,96.919,VALID,156.241,VALID,20.446,VALID,143.0,VALID,1.189,
2017-06-04, 07:22:06,VALID,918.284,VALID,0.0,VALID,96.722,VALID,189.725,VALID,20.416,VALID,145.0,VALID,0.992,
2017-06-04, 07:23:06,VALID,918.281,VALID,0.0,VALID,96.921,VALID,213.725,VALID,20.443,VALID,109.0,VALID,0.764,
2017-06-04, 07:24:06,VALID,918.287,VALID,0.0,VALID,97.306,VALID,220.65,VALID,20.583,VALID,94.0,VALID,0.877,
2017-06-04, 07:25:06,VALID,918.295,VALID,0.0,VALID,96.843,VALID,224.238,VALID,20.604,VALID,96.0,VALID,0.768,
2017-06-04, 07:26:06,VALID,918.297,VALID,0.0,VALID,96.751,VALID,227.379,VALID,20.712,VALID,77.0,VALID,0.703,
2017-06-04, 07:27:06,VALID,918.304,VALID,0.0,VALID,96.405,VALID,230.539,VALID,20.797,VALID,84.0,VALID,0.798,
2017-06-04, 07:28:06,VALID,918.31,VALID,0.0,VALID,95.765,VALID,233.298,VALID,20.873,VALID,84.0,VALID,0.992,
2017-06-04, 07:29:06,VALID,918.318,VALID,0.0,VALID,95.311,VALID,236.149,VALID,20.935,VALID,86.0,VALID,0.731,
2017-06-04, 07:30:06,VALID,918.321,VALID,0.0,VALID,95.401,VALID,238.986,VALID,21.048,VALID,72.0,VALID,0.512,
2017-06-04, 07:31:06,VALID,918.343,VALID,0.0,VALID,94.934,VALID,242.687,VALID,21.175,VALID,95.0,VALID,0.628,
2017-06-04, 07:32:06,VALID,918.373,VALID,0.0,VALID,94.174,VALID,245.801,VALID,21.276,VALID,73.0,VALID,0.558,
2017-06-04, 07:33:06,VALID,918.396,VALID,0.0,VALID,94.341,VALID,248.916,VALID,21.465,VALID,77.0,VALID,0.358,
2017-06-04, 07:34:06,VALID,918.404,VALID,0.0,VALID,93.325,VALID,252.17,VALID,21.64,VALID,99.0,VALID,0.528,
2017-06-04, 07:35:06,VALID,918.408,VALID,0.0,VALID,92.301,VALID,255.568,VALID,21.758,VALID,110.0,VALID,0.561,
2017-06-04, 07:36:06,VALID,918.404,VALID,0.0,VALID,92.338,VALID,259.001,VALID,21.875,VALID,113.0,VALID,0.507,
2017-06-04, 07:37:06,VALID,918.421,VALID,0.0,VALID,91.633,VALID,263.137,VALID,22.077,VALID,89.0,VALID,0.651,
2017-06-04, 07:38:06,VALID,918.431,VALID,0.0,VALID,90.475,VALID,266.199,VALID,22.161,VALID,67.0,VALID,0.814,
2017-06-04, 07:39:06,VALID,918.46,VALID,0.0,VALID,89.96,VALID,269.207,VALID,22.244,VALID,78.0,VALID,0.59,
2017-06-04, 07:40:06,VALID,918.483,VALID,0.0,VALID,89.875,VALID,272.53,VALID,22.346,VALID,95.0,VALID,0.649,
2017-06-04, 07:41:06,VALID,918.511,VALID,0.0,VALID,89.913,VALID,275.445,VALID,22.403,VALID,111.0,VALID,0.845,
2017-06-04, 07:42:06,VALID,918.501,VALID,0.0,VALID,89.975,VALID,278.552,VALID,22.435,VALID,136.0,VALID,0.949,
2017-06-04, 07:43:06,VALID,918.497,VALID,0.0,VALID,89.365,VALID,282.518,VALID,22.376,VALID,135.0,VALID,1.129,
2017-06-04, 07:44:06,VALID,918.497,VALID,0.0,VALID,88.903,VALID,281.276,VALID,22.054,VALID,158.0,VALID,1.414,
2017-06-04, 07:45:06,VALID,918.511,VALID,0.0,VALID,90.244,VALID,289.776,VALID,21.768,VALID,160.0,VALID,1.357,
2017-06-04, 07:46:06,VALID,918.524,VALID,0.0,VALID,90.709,VALID,292.435,VALID,21.452,VALID,153.0,VALID,1.78,
2017-06-04, 07:47:06,VALID,918.541,VALID,0.0,VALID,92.388,VALID,294.007,VALID,21.159,VALID,152.0,VALID,1.912,
2017-06-04, 07:48:06,VALID,918.542,VALID,0.0,VALID,93.928,VALID,300.012,VALID,21.007,VALID,139.0,VALID,1.703,
2017-06-04, 07:49:06,VALID,918.534,VALID,0.0,VALID,95.153,VALID,303.15,VALID,21.081,VALID,120.0,VALID,1.441,
2017-06-04, 07:50:06,VALID,918.523,VALID,0.0,VALID,94.243,VALID,306.934,VALID,21.168,VALID,122.0,VALID,1.381,
2017-06-04, 07:51:06,VALID,918.503,VALID,0.0,VALID,93.363,VALID,309.958,VALID,21.27,VALID,112.0,VALID,1.06,
2017-06-04, 07:52:06,VALID,918.479,VALID,0.0,VALID,93.005,VALID,313.44,VALID,21.368,VALID,122.0,VALID,1.017,
2017-06-04, 07:53:06,VALID,918.48,VALID,0.0,VALID,93.101,VALID,316.889,VALID,21.503,VALID,123.0,VALID,1.062,
2017-06-04, 07:54:06,VALID,918.498,VALID,0.0,VALID,92.093,VALID,321.04,VALID,21.602,VALID,105.0,VALID,1.235,
2017-06-04, 07:55:06,VALID,918.53,VALID,0.0,VALID,91.772,VALID,324.603,VALID,21.695,VALID,103.0,VALID,1.029,
2017-06-04, 07:56:06,VALID,918.556,VALID,0.0,VALID,91.214,VALID,327.696,VALID,21.864,VALID,107.0,VALID,1.08,
2017-06-04, 07:57:06,VALID,918.565,VALID,0.0,VALID,89.852,VALID,330.972,VALID,21.891,VALID,110.0,VALID,1.014,
2017-06-04, 07:58:06,VALID,918.568,VALID,0.0,VALID,89.37,VALID,334.332,VALID,21.925,VALID,99.0,VALID,1.083,
2017-06-04, 07:59:06,VALID,918.567,VALID,0.0,VALID,90.127,VALID,337.739,VALID,22.001,VALID,92.0,VALID,1.204,
2017-06-04, 08:00:06,VALID,918.589,VALID,0.0,VALID,90.582,VALID,341.165,VALID,22.107,VALID,147.0,VALID,1.078,
2017-06-04, 08:01:06,VALID,918.614,VALID,0.0,VALID,90.335,VALID,344.799,VALID,22.055,VALID,161.0,VALID,1.12,
2017-06-04, 08:02:06,VALID,918.636,VALID,0.0,VALID,90.089,VALID,347.65,VALID,22.055,VALID,150.0,VALID,1.169,
2017-06-04, 08:03:06,VALID,918.651,VALID,0.0,VALID,89.437,VALID,350.663,VALID,21.945,VALID,150.0,VALID,1.391,
2017-06-04, 08:04:06,VALID,918.664,VALID,0.0,VALID,90.271,VALID,353.621,VALID,21.862,VALID,148.0,VALID,1.311,
2017-06-04, 08:05:06,VALID,918.666,VALID,0.0,VALID,90.957,VALID,357.369,VALID,21.851,VALID,150.0,VALID,1.156,
2017-06-04, 08:06:06,VALID,918.655,VALID,0.0,VALID,91.371,VALID,361.215,VALID,21.924,VALID,165.0,VALID,1.227,
2017-06-04, 08:07:06,VALID,918.642,VALID,0.0,VALID,90.228,VALID,364.831,VALID,21.898,VALID,155.0,VALID,1.941,
2017-06-04, 08:08:06,VALID,918.624,VALID,0.0,VALID,91.228,VALID,368.14,VALID,21.878,VALID,168.0,VALID,1.036,
2017-06-04, 08:09:06,VALID,918.624,VALID,0.0,VALID,90.806,VALID,371.099,VALID,22.009,VALID,155.0,VALID,1.596,
2017-06-04, 08:10:06,VALID,918.638,VALID,0.0,VALID,90.636,VALID,375.27,VALID,22.059,VALID,171.0,VALID,1.365,
2017-06-04, 08:11:06,VALID,918.639,VALID,0.0,VALID,90.475,VALID,379.1,VALID,22.177,VALID,170.0,VALID,1.159,
2017-06-04, 08:12:06,VALID,918.614,VALID,0.0,VALID,90.034,VALID,382.833,VALID,22.281,VALID,167.0,VALID,0.895,
2017-06-04, 08:13:06,VALID,918.59,VALID,0.0,VALID,89.778,VALID,386.333,VALID,22.42,VALID,146.0,VALID,0.809,
2017-06-04, 08:14:06,VALID,918.581,VALID,0.0,VALID,88.264,VALID,389.772,VALID,22.519,VALID,155.0,VALID,0.793,
2017-06-04, 08:15:06,VALID,918.581,VALID,0.0,VALID,87.57,VALID,392.78,VALID,22.516,VALID,142.0,VALID,0.503,
2017-06-04, 08:16:06,VALID,918.578,VALID,0.0,VALID,87.632,VALID,396.776,VALID,22.537,VALID,153.0,VALID,0.21,
2017-06-04, 08:17:06,VALID,918.587,VALID,0.0,VALID,87.597,VALID,400.587,VALID,22.729,VALID,176.0,VALID,0.296,
2017-06-04, 08:18:06,VALID,918.587,VALID,0.0,VALID,86.553,VALID,404.089,VALID,23.012,VALID,185.0,VALID,0.494,
2017-06-04, 08:19:06,VALID,918.588,VALID,0.0,VALID,85.18,VALID,408.133,VALID,23.279,VALID,200.0,VALID,0.264,
2017-06-04, 08:20:06,VALID,918.609,VALID,0.0,VALID,84.462,VALID,412.014,VALID,23.471,VALID,192.0,VALID,0.502,
2017-06-04, 08:21:06,VALID,918.632,VALID,0.0,VALID,84.334,VALID,415.414,VALID,23.563,VALID,135.0,VALID,0.294,
2017-06-04, 08:22:06,VALID,918.636,VALID,0.0,VALID,83.675,VALID,417.868,VALID,23.681,VALID,80.0,VALID,0.47,
2017-06-04, 08:23:06,VALID,918.644,VALID,0.0,VALID,81.443,VALID,421.408,VALID,23.632,VALID,59.0,VALID,0.64,
2017-06-04, 08:24:06,VALID,918.648,VALID,0.0,VALID,82.521,VALID,425.622,VALID,23.544,VALID,90.0,VALID,0.14,
2017-06-04, 08:25:06,VALID,918.651,VALID,0.0,VALID,82.371,VALID,428.458,VALID,23.68,VALID,105.0,VALID,0.091,
2017-06-04, 08:26:06,VALID,918.644,VALID,0.0,VALID,81.8,VALID,432.966,VALID,23.902,VALID,138.0,VALID,0.154,
2017-06-04, 08:27:06,VALID,918.619,VALID,0.0,VALID,81.827,VALID,437.634,VALID,24.117,VALID,66.0,VALID,0.312,
2017-06-04, 08:28:06,VALID,918.614,VALID,0.0,VALID,80.727,VALID,439.912,VALID,24.443,VALID,11.0,VALID,0.242,
2017-06-04, 08:29:06,VALID,918.616,VALID,0.0,VALID,79.629,VALID,444.081,VALID,24.627,VALID,42.0,VALID,1.051,
2017-06-04, 08:30:06,VALID,918.602,VALID,0.0,VALID,77.017,VALID,447.92,VALID,24.639,VALID,24.0,VALID,1.053,
2017-06-04, 08:31:06,VALID,918.613,VALID,0.0,VALID,75.695,VALID,452.373,VALID,24.572,VALID,5.0,VALID,0.764,
2017-06-04, 08:32:06,VALID,918.625,VALID,0.0,VALID,73.095,VALID,456.215,VALID,24.571,VALID,21.0,VALID,0.832,
2017-06-04, 08:33:06,VALID,918.619,VALID,0.0,VALID,73.295,VALID,459.155,VALID,24.36,VALID,44.0,VALID,0.827,
2017-06-04, 08:34:06,VALID,918.601,VALID,0.0,VALID,73.641,VALID,461.984,VALID,24.156,VALID,41.0,VALID,0.989,
2017-06-04, 08:35:06,VALID,918.621,VALID,0.0,VALID,74.868,VALID,466.51,VALID,24.189,VALID,10.0,VALID,0.832,
2017-06-04, 08:36:06,VALID,918.623,VALID,0.0,VALID,72.869,VALID,471.122,VALID,24.23,VALID,348.0,VALID,0.58,
2017-06-04, 08:37:06,VALID,918.645,VALID,0.0,VALID,73.892,VALID,475.441,VALID,24.346,VALID,358.0,VALID,0.543,
2017-06-04, 08:38:06,VALID,918.632,VALID,0.0,VALID,73.577,VALID,479.444,VALID,24.449,VALID,68.0,VALID,0.316,
2017-06-04, 08:39:06,VALID,918.644,VALID,0.0,VALID,75.299,VALID,482.302,VALID,24.488,VALID,78.0,VALID,0.491,
2017-06-04, 08:40:06,VALID,918.64,VALID,0.0,VALID,75.759,VALID,484.698,VALID,24.556,VALID,101.0,VALID,0.629,
2017-06-04, 08:41:06,VALID,918.646,VALID,0.0,VALID,74.649,VALID,487.554,VALID,24.573,VALID,132.0,VALID,0.161,
2017-06-04, 08:42:06,VALID,918.647,VALID,0.0,VALID,76.021,VALID,490.931,VALID,24.644,VALID,148.0,VALID,0.52,
2017-06-04, 08:43:06,VALID,918.651,VALID,0.0,VALID,79.927,VALID,493.86,VALID,24.438,VALID,158.0,VALID,1.329,
2017-06-04, 08:44:06,VALID,918.643,VALID,0.0,VALID,80.971,VALID,497.672,VALID,24.127,VALID,147.0,VALID,1.129,
2017-06-04, 08:45:06,VALID,918.656,VALID,0.0,VALID,82.032,VALID,500.565,VALID,23.871,VALID,140.0,VALID,1.088,
2017-06-04, 08:46:06,VALID,918.684,VALID,0.0,VALID,82.182,VALID,502.801,VALID,23.841,VALID,174.0,VALID,0.909,
2017-06-04, 08:47:06,VALID,918.702,VALID,0.0,VALID,81.894,VALID,505.176,VALID,23.994,VALID,175.0,VALID,0.47,
2017-06-04, 08:48:07,VALID,918.709,VALID,0.0,VALID,82.375,VALID,508.349,VALID,24.202,VALID,172.0,VALID,0.596,
2017-06-04, 08:49:07,VALID,918.709,VALID,0.0,VALID,80.774,VALID,511.807,VALID,24.392,VALID,201.0,VALID,0.462,
2017-06-04, 08:50:07,VALID,918.733,VALID,0.0,VALID,79.501,VALID,516.372,VALID,24.433,VALID,246.0,VALID,0.34,
2017-06-04, 08:51:07,VALID,918.746,VALID,0.0,VALID,80.702,VALID,520.115,VALID,24.309,VALID,284.0,VALID,0.047,
2017-06-04, 08:52:07,VALID,918.74,VALID,0.0,VALID,81.025,VALID,523.563,VALID,24.557,VALID,313.0,VALID,0.045,
2017-06-04, 08:53:07,VALID,918.72,VALID,0.0,VALID,79.766,VALID,526.925,VALID,24.88,VALID,124.0,VALID,0.204,
2017-06-04, 08:54:07,VALID,918.703,VALID,0.0,VALID,77.241,VALID,530.535,VALID,25.04,VALID,125.0,VALID,0.704,
2017-06-04, 08:55:07,VALID,918.698,VALID,0.0,VALID,76.365,VALID,534.111,VALID,24.844,VALID,85.0,VALID,0.967,
2017-06-04, 08:56:07,VALID,918.709,VALID,0.0,VALID,78.534,VALID,537.09,VALID,24.651,VALID,43.0,VALID,0.831,
